Stündliche Wetter Kyzyl-Barzhau

Heute, 16 Mai, Sonntag

Zeit Temperatur Niederschläge Wind Luftdruck Luftfeuchtigkeit
00:00 +19°C° 0 mm 2 m/S 751 mmHg 62%
01:00 +18°C° 0 mm 2 m/S 751 mmHg 65%
02:00 +18°C° 0 mm 2 m/S 751 mmHg 66%
03:00 +17°C° 0 mm 2 m/S 751 mmHg 67%
04:00 +16°C° 0 mm 2 m/S 751 mmHg 69%
05:00 +18°C° 0 mm 2 m/S 751 mmHg 65%
06:00 +19°C° 0 mm 2 m/S 751 mmHg 61%
07:00 +21°C° 0 mm 2 m/S 752 mmHg 57%
08:00 +24°C° 0 mm 2 m/S 752 mmHg 51%
09:00 +26°C° 0 mm 3 m/S 752 mmHg 45%
10:00 +28°C° 0 mm 3 m/S 751 mmHg 39%
11:00 +29°C° 0 mm 4 m/S 751 mmHg 35%
12:00 +30°C° 0 mm 4 m/S 751 mmHg 31%
13:00 +32°C° 0 mm 4 m/S 751 mmHg 27%
14:00 +32°C° 0 mm 4 m/S 751 mmHg 27%
15:00 +32°C° 0 mm 4 m/S 751 mmHg 27%
16:00 +32°C° 0 mm 4 m/S 751 mmHg 28%
17:00 +30°C° 0 mm 3 m/S 750 mmHg 34%
18:00 +28°C° 0 mm 3 m/S 750 mmHg 41%
19:00 +26°C° 0 mm 2 m/S 750 mmHg 47%
20:00 +25°C° 0 mm 2 m/S 750 mmHg 49%
21:00 +23°C° 0 mm 2 m/S 750 mmHg 51%
22:00 +20°C° 0 mm 2 m/S 749 mmHg 53%
23:00 +20°C° 0 mm 2 m/S 750 mmHg 55%

Morgen, 17 Mai, Montag

Zeit Temperatur Niederschläge Wind Luftdruck Luftfeuchtigkeit
00:00 +19°C° 0 mm 2 m/S 750 mmHg 56%
01:00 +19°C° 0 mm 2 m/S 750 mmHg 58%
02:00 +18°C° 0 mm 2 m/S 750 mmHg 59%
03:00 +18°C° 0 mm 2 m/S 750 mmHg 61%
04:00 +17°C° 0 mm 2 m/S 750 mmHg 62%
05:00 +18°C° 0 mm 2 m/S 750 mmHg 61%
06:00 +20°C° 0 mm 2 m/S 750 mmHg 59%
07:00 +21°C° 0 mm 2 m/S 751 mmHg 58%
08:00 +24°C° 0 mm 2 m/S 751 mmHg 53%
09:00 +25°C° 0 mm 3 m/S 751 mmHg 47%
10:00 +27°C° 0 mm 3 m/S 751 mmHg 42%
11:00 +29°C° 0 mm 3 m/S 750 mmHg 39%
12:00 +30°C° 0 mm 3 m/S 750 mmHg 35%
13:00 +32°C° 0 mm 4 m/S 750 mmHg 31%
14:00 +31°C° 0 mm 3 m/S 750 mmHg 31%
15:00 +31°C° 0 mm 3 m/S 749 mmHg 31%
16:00 +31°C° 0 mm 3 m/S 749 mmHg 30%
17:00 +29°C° 0 mm 3 m/S 749 mmHg 37%
18:00 +28°C° 0 mm 3 m/S 749 mmHg 44%
19:00 +26°C° 0 mm 3 m/S 749 mmHg 51%
20:00 +24°C° 0 mm 3 m/S 749 mmHg 55%
21:00 +21°C° 0 mm 3 m/S 749 mmHg 59%
22:00 +19°C° 0 mm 3 m/S 749 mmHg 63%
23:00 +18°C° 0 mm 2 m/S 749 mmHg 66%

übermorgen, 18 Mai, Dienstag

Zeit Temperatur Niederschläge Wind Luftdruck Luftfeuchtigkeit
00:00 +17°C° 0 mm 2 m/S 749 mmHg 69%
01:00 +16°C° 0 mm 1 m/S 749 mmHg 73%
02:00 +16°C° 0 mm 1 m/S 749 mmHg 73%
03:00 +16°C° 0 mm 1 m/S 749 mmHg 74%
04:00 +16°C° 0 mm 1 m/S 749 mmHg 75%
05:00 +18°C° 0 mm 1 m/S 749 mmHg 72%
06:00 +19°C° 0 mm 1 m/S 749 mmHg 68%
07:00 +21°C° 0 mm 1 m/S 749 mmHg 65%
08:00 +22°C° 0 mm 1 m/S 749 mmHg 60%
09:00 +24°C° 0 mm 1 m/S 749 mmHg 55%
10:00 +26°C° 0 mm 1 m/S 749 mmHg 50%
11:00 +27°C° 0 mm 2 m/S 749 mmHg 47%
12:00 +28°C° 0 mm 3 m/S 749 mmHg 44%
13:00 +29°C° 0 mm 4 m/S 749 mmHg 41%
14:00 +29°C° 0 mm 4 m/S 749 mmHg 41%
15:00 +28°C° 0 mm 4 m/S 749 mmHg 40%
16:00 +28°C° 0 mm 4 m/S 749 mmHg 40%
17:00 +26°C° 0 mm 4 m/S 749 mmHg 47%
18:00 +25°C° 0 mm 3 m/S 749 mmHg 53%
19:00 +22°C° 0 mm 3 m/S 749 mmHg 60%
20:00 +21°C° 0 mm 3 m/S 749 mmHg 63%
21:00 +19°C° 0 mm 3 m/S 749 mmHg 66%
22:00 +17°C° 0 mm 3 m/S 749 mmHg 69%
23:00 +17°C° 0 mm 3 m/S 750 mmHg 69%

19 Mai, Mittwoch

Zeit Temperatur Niederschläge Wind Luftdruck Luftfeuchtigkeit
00:00 +16°C° 0 mm 3 m/S 750 mmHg 69%
01:00 +15°C° 0 mm 4 m/S 750 mmHg 69%
02:00 +14°C° 0 mm 4 m/S 750 mmHg 72%
03:00 +13°C° 0 mm 4 m/S 750 mmHg 74%
04:00 +12°C° 0 mm 4 m/S 750 mmHg 76%
05:00 +13°C° 0 mm 4 m/S 750 mmHg 73%
06:00 +14°C° 0 mm 4 m/S 751 mmHg 70%
07:00 +15°C° 0 mm 4 m/S 751 mmHg 66%
08:00 +18°C° 0 mm 4 m/S 751 mmHg 60%
09:00 +20°C° 0 mm 4 m/S 751 mmHg 53%
10:00 +22°C° 0 mm 4 m/S 751 mmHg 47%
11:00 +23°C° 0 mm 4 m/S 751 mmHg 42%
12:00 +25°C° 0 mm 4 m/S 751 mmHg 37%
13:00 +26°C° 0 mm 3 m/S 751 mmHg 33%
14:00 +27°C° 0 mm 3 m/S 751 mmHg 32%
15:00 +27°C° 0 mm 3 m/S 751 mmHg 31%
16:00 +28°C° 0 mm 3 m/S 751 mmHg 29%
17:00 +26°C° 0 mm 3 m/S 751 mmHg 37%
18:00 +24°C° 0 mm 2 m/S 751 mmHg 44%
19:00 +23°C° 0 mm 2 m/S 751 mmHg 51%
20:00 +20°C° 0 mm 2 m/S 751 mmHg 53%
21:00 +18°C° 0 mm 2 m/S 751 mmHg 56%
22:00 +16°C° 0 mm 2 m/S 751 mmHg 58%
23:00 +15°C° 0 mm 2 m/S 751 mmHg 60%

20 Mai, Donnerstag

Zeit Temperatur Niederschläge Wind Luftdruck Luftfeuchtigkeit
00:00 +14°C° 0 mm 2 m/S 752 mmHg 61%
01:00 +14°C° 0 mm 2 m/S 752 mmHg 63%
02:00 +13°C° 0 mm 2 m/S 752 mmHg 64%
03:00 +13°C° 0 mm 1 m/S 752 mmHg 66%
04:00 +12°C° 0 mm 1 m/S 753 mmHg 67%
05:00 +14°C° 0 mm 2 m/S 753 mmHg 62%
06:00 +15°C° 0 mm 2 m/S 753 mmHg 58%
07:00 +17°C° 0 mm 3 m/S 753 mmHg 53%
08:00 +19°C° 0 mm 3 m/S 753 mmHg 47%
09:00 +21°C° 0 mm 3 m/S 753 mmHg 41%
10:00 +22°C° 0 mm 4 m/S 753 mmHg 35%
11:00 +24°C° 0 mm 3 m/S 753 mmHg 33%
12:00 +25°C° 0 mm 3 m/S 752 mmHg 31%
13:00 +26°C° 0 mm 3 m/S 752 mmHg 29%
14:00 +26°C° 0 mm 3 m/S 752 mmHg 29%
15:00 +27°C° 0 mm 3 m/S 751 mmHg 29%
16:00 +27°C° 0 mm 4 m/S 751 mmHg 29%
17:00 +25°C° 0 mm 3 m/S 751 mmHg 37%
18:00 +24°C° 0 mm 2 m/S 751 mmHg 45%
19:00 +21°C° 0 mm 2 m/S 751 mmHg 53%
20:00 +19°C° 0 mm 2 m/S 751 mmHg 57%
21:00 +18°C° 0 mm 2 m/S 751 mmHg 62%
22:00 +16°C° 0 mm 2 m/S 751 mmHg 66%
23:00 +16°C° 0 mm 2 m/S 751 mmHg 68%

21 Mai, Freitag

Zeit Temperatur Niederschläge Wind Luftdruck Luftfeuchtigkeit
00:00 +15°C° 0 mm 2 m/S 751 mmHg 70%
01:00 +14°C° 0 mm 2 m/S 751 mmHg 72%
02:00 +14°C° 0 mm 2 m/S 751 mmHg 72%
03:00 +14°C° 0 mm 2 m/S 751 mmHg 72%
04:00 +13°C° 0 mm 2 m/S 752 mmHg 71%
05:00 +15°C° 0 mm 2 m/S 752 mmHg 67%
06:00 +16°C° 0 mm 2 m/S 752 mmHg 62%
07:00 +18°C° 0 mm 2 m/S 752 mmHg 58%
08:00 +20°C° 0 mm 3 m/S 752 mmHg 53%
09:00 +21°C° 0 mm 3 m/S 752 mmHg 49%
10:00 +24°C° 0 mm 3 m/S 753 mmHg 44%
11:00 +25°C° 0 mm 3 m/S 753 mmHg 43%
12:00 +26°C° 0 mm 4 m/S 752 mmHg 41%
13:00 +27°C° 0 mm 4 m/S 752 mmHg 39%
14:00 +27°C° 0 mm 4 m/S 752 mmHg 38%
15:00 +27°C° 0 mm 4 m/S 752 mmHg 37%
16:00 +28°C° 0 mm 4 m/S 752 mmHg 35%
17:00 +26°C° 0 mm 3 m/S 752 mmHg 42%
18:00 +25°C° 0 mm 2 m/S 752 mmHg 49%
19:00 +24°C° 0 mm 2 m/S 752 mmHg 56%
20:00 +23°C° 0 mm 1 m/S 752 mmHg 59%
21:00 +21°C° 0 mm 1 m/S 752 mmHg 63%
22:00 +20°C° 0 mm 1 m/S 752 mmHg 66%
23:00 +19°C° 0 mm 1 m/S 752 mmHg 68%
Mehr zeigen

Wir brauchen deine Erlaubnis

Meteoprog und unser Service Anbieter werden persönliche Daten aufbewahren, so wie Cookies, Geräte Bezeichnung oder ähnliche Technologien von deinem Gerät und Prozess, so wie Persönliche Daten Inhalte und Werbungen, genauso wie social Media und den Verkehr zu analysieren.

  • Aufbewahrung und/oder Zugang zu deiner Geräte Informationen.

    Cookies, Geräte Bezeichnung oder andere Informationen, können aufbewahrt oder Zugang zu deinem Gerät erhalten, für den Grund, der oben angegeben wird.

  • Personalisierte Werbung und Inhalte, Messungen, Einblick in das Publikum und Produkt Entwicklung.

    Werbungen und Inhalte können personalisiert werden, basierend auf ein Profil. Mehr Daten können besser personalisierte Werbungen und Inhalte hinzufügen. Werbung und Inhalte können gezeigt und gemessen werden. Einblicke über das Publikum, welche die Werbung gesehen haben und den Inhalt, können abgeleitet werden. So wie Daten können genutzt werden, um es zu verbessern oder die Benutzer Erfahrung zu verbessern das System und die Software.

Wenn du “Ich stimme zu” klickst, erlaubst du uns, die Cookies zu benutzen die Geräte Bezeichnung, den Web oder ähnliche Technologien zu benutzen. Deine Settings, können in deinem Gerät bei deinem Browser geändert werden.

Für den bestimmten Zweck, berechtigten Interessen beruhen darauf, mehr als auf den Inhalt. Du kannst mehr darüber in unseren Privaten und Cookie Politik lesen.